User: anonymous   Login
Location: Saint-Maurice-d�Ard�che
(44.5216°N, 4.4002°E)
Time: 13:51:54
(UTC+00:00)
Language:

CZ-2C R/B - Orbit

View from above orbital plane
View from above orbital plane
View from above satellite
View from above satellite

Ground track
Ground track

The orbit data is extracted from the following two-line orbital elements,

1 28480U 04046B   21163.00825403  .00000007  00000-0  18102-4 0  9994
2 28480  98.0496 175.4529 0140704 239.7177 139.0411 14.25754312861676
Epoch (UTC): 12 June 2021 00:11:53
Eccentricity: 0.0140704
inclination: 98.0496°
perigee height: 705 km
apogee height: 907 km
right ascension of ascending node: 175.4529°
argument of perigee: 239.7177°
revolutions per day: 14.25754312
mean anomaly at epoch: 139.0411°
orbit number at epoch: 86167

The dashed part of the orbit path shows where the satellite is in the earth's shadow,  

DLR